Wind_Speed
40 39 38 35 33 33 33 33 31 29 28 27 27 26 24 22 22 23 23 23 23 22 23 22 21 21 21 21 20 20 16 12 11 12 13 17 17 15 13 10 9 10 15 17 11 6 4 4 4 3 5 4 1 1 2 1 1 2 2 3 3 3 2 4 7 4 1 5 9 9 10 10 8 6 3 3 3 2 4 4 1 1 3 1 2 2 8 14
40 39 38 36 34 34 34 34 32 30 28 27 27 27 24 23 23 22 22 22 22 22 22 22 22 21 22 22 21 20 17 13 10 10 17 20 16 15 18 17 14 11 11 14 13 9 7 5 5 4 3 3 0 0 2 0 1 1 1 2 3 3 2 1 5 4 0 4 10 9 8 6 6 8 5 5 6 4 5 6 4 4 5 5 1 3 10 14
41 40 39 37 35 35 34 34 33 30 28 26 26 27 24 23 23 21 22 23 22 22 22 22 22 22 22 21 20 18 15 11 6 10 20 22 21 20 19 18 17 16 13 12 12 12 10 6 8 6 2 1 0 1 3 1 1 1 1 4 3 2 2 0 3 4 1 2 10 10 5 3 2 5 5 5 5 5 8 7 6 7 9 9 5 7 12 15
41 40 39 37 35 34 34 34 33 30 28 26 26 26 24 23 24 21 21 24 23 22 22 22 22 23 22 20 17 17 15 8 5 15 24 22 23 23 22 19 17 17 14 11 10 11 10 7 7 3 2 2 1 1 4 2 0 2 2 2 2 2 2 2 2 3 2 0 6 10 7 5 3 3 5 5 5 6 9 8 9 9 10 11 8 11 15 17
42 40 39 38 35 34 34 34 32 30 28 27 26 25 24 23 23 21 20 23 23 21 22 22 22 22 21 18 18 20 14 4 5 16 20 18 21 22 22 21 17 15 13 12 9 9 9 7 6 2 2 3 3 3 3 2 1 2 1 2 2 1 1 3 2 3 2 1 5 10 9 7 6 3 5 8 8 4 2 4 6 5 5 10 11 14 17 18
42 40 39 38 35 34 34 34 31 30 29 27 27 26 25 24 23 21 19 21 22 21 21 21 22 21 19 19 21 20 11 3 3 8 12 17 21 20 23 22 18 14 14 13 10 10 8 7 7 5 3 3 4 4 3 2 1 2 1 1 1 1 1 3 2 2 2 4 7 8 6 7 7 5 2 7 9 1 4 2 2 2 3 9 12 14 16 18
42 40 40 38 35 33 34 33 31 31 29 28 28 27 27 24 23 22 19 20 20 20 20 20 22 21 20 21 19 13 7 4 2 2 4 13 18 19 24 23 19 15 16 15 12 10 8 9 8 5 4 3 3 3 3 3 1 2 2 3 1 2 2 1 1 2 1 3 4 3 5 7 8 6 2 7 9 3 4 3 3 2 5 10 12 14 16 18
42 41 40 38 34 32 33 33 31 31 30 29 29 28 28 25 23 22 21 20 19 20 19 19 22 22 23 21 13 6 7 7 4 3 1 9 15 19 24 22 19 17 18 19 16 11 8 9 8 4 4 3 3 4 4 4 2 2 2 4 2 1 2 2 2 4 2 1 2 3 5 4 2 2 2 7 7 2 1 2 3 4 6 9 11 13 14 16
42 41 40 38 34 33 34 33 32 31 30 28 28 28 26 24 23 22 21 19 19 20 19 21 23 23 23 17 8 6 9 11 7 2 3 5 13 19 23 21 20 20 18 18 16 14 9 6 6 4 4 2 4 6 4 5 4 2 4 5 4 2 2 2 3 4 2 2 2 6 5 2 2 1 4 5 2 1 1 1 3 4 6 7 9 12 13 14
42 41 40 38 35 34 34 34 33 32 30 27 28 28 25 23 23 22 20 19 18 19 20 22 23 25 22 12 8 6 7 11 13 6 2 3 11 19 22 20 21 22 17 14 13 13 9 6 5 2 1 1 3 3 2 4 2 5 8 7 5 3 2 1 3 4 2 3 1 5 5 2 2 2 5 2 3 2 2 4 3 4 6 7 8 10 12 13
42 40 40 38 36 36 34 34 34 32 31 28 28 28 24 23 23 21 19 19 18 18 20 22 24 27 19 9 10 7 3 8 13 11 4 4 11 19 21 19 22 23 17 11 13 16 9 7 10 3 1 4 5 2 1 2 4 9 10 9 6 4 4 3 4 3 0 3 1 2 5 2 3 3 4 3 3 2 4 5 4 6 6 6 8 7 9 10
42 41 40 38 37 36 35 35 33 31 30 28 28 26 22 22 23 21 19 19 17 17 20 23 26 26 13 6 9 5 3 6 10 10 8 8 12 17 16 15 20 22 18 11 11 18 10 8 14 4 1 5 7 4 3 2 4 7 5 6 5 3 5 3 2 1 2 2 0 1 3 3 6 7 3 4 2 0 4 5 5 6 5 5 6 6 7 9
43 41 40 39 38 38 37 35 33 30 29 28 27 25 22 22 22 21 19 18 17 18 20 22 26 22 10 6 7 6 4 5 8 10 11 12 13 15 12 12 17 17 16 11 10 16 11 10 13 4 1 3 4 2 5 4 1 4 1 2 5 4 3 2 2 1 1 2 1 3 4 4 9 8 3 4 0 2 5 6 6 6 5 4 5 5 6 8
43 41 41 40 39 39 38 36 33 30 28 28 27 24 23 22 21 20 19 18 17 17 19 22 25 16 6 4 4 9 10 6 9 11 13 15 13 13 11 12 14 12 12 9 9 12 12 11 10 6 2 1 4 3 6 5 1 4 3 1 3 5 4 3 2 1 2 2 1 4 5 3 4 4 3 2 1 3 5 6 6 5 5 5 5 6 7 9
43 42 41 40 40 39 37 36 34 32 29 28 26 24 24 22 21 19 19 19 17 18 20 23 22 11 4 4 2 11 12 7 9 12 13 16 15 11 10 13 11 9 9 7 8 10 11 12 9 6 2 1 5 7 5 4 1 2 4 3 2 3 3 4 2 2 0 2 1 4 5 4 2 2 4 2 1 4 6 5 4 5 5 5 5 6 6 7
43 43 42 40 40 38 36 36 35 34 30 28 27 25 24 23 20 19 19 18 17 20 21 19 17 7 4 4 2 9 11 7 10 12 13 16 14 11 13 14 10 9 10 9 12 12 10 9 3 1 3 3 6 7 6 4 3 1 2 4 3 3 3 3 2 2 2 1 3 4 3 2 0 1 3 2 2 3 5 6 5 5 5 5 5 5 6 6
44 43 42 41 39 37 37 36 36 35 32 30 29 27 24 21 20 19 19 19 18 22 18 12 13 5 2 3 4 7 8 8 12 13 15 15 11 14 16 10 7 11 12 12 12 8 5 4 1 1 2 3 3 5 7 6 5 3 1 1 1 2 3 3 3 1 1 1 4 4 4 5 1 1 2 2 2 1 4 6 6 5 5 5 4 4 6 7
45 43 42 41 38 38 37 36 38 35 34 34 30 27 25 21 20 19 19 22 20 18 10 6 11 5 3 6 5 4 7 12 15 14 15 14 11 15 14 6 7 11 10 7 4 2 2 1 1 3 3 3 4 7 8 5 7 8 6 4 2 2 3 3 3 1 0 2 4 5 6 11 7 6 6 3 2 3 5 5 5 5 5 5 4 5 6 7
45 43 42 40 39 38 37 39 38 36 37 34 30 29 24 19 16 13 16 18 14 9 4 7 10 3 3 8 4 2 9 15 15 12 13 13 13 13 9 7 8 7 7 5 3 1 2 2 2 4 6 6 8 9 6 3 7 9 6 4 4 5 3 1 2 2 0 3 6 8 8 10 10 10 8 3 3 4 7 6 5 6 6 6 5 6 6 7
44 43 42 40 40 39 39 39 36 38 39 34 34 29 17 15 11 6 8 7 4 1 1 9 10 1 2 4 8 11 13 13 8 7 14 14 14 12 5 4 4 3 4 5 4 2 1 4 6 6 8 9 8 4 1 3 4 6 5 2 2 4 3 1 2 3 1 3 6 7 8 10 11 11 10 4 2 5 8 8 8 7 7 6 7 7 7 9
44 44 43 41 41 40 40 38 37 40 37 35 36 18 7 12 9 9 12 3 1 0 1 8 8 1 2 2 11 15 9 6 3 6 15 15 14 12 2 2 6 5 1 1 4 2 2 6 6 4 4 6 6 4 5 5 4 5 6 4 2 2 1 2 1 3 2 3 2 0 6 12 13 12 11 7 6 9 10 10 11 10 8 6 7 9 8 7
45 44 43 42 41 41 40 38 38 39 35 35 27 6 2 5 6 16 18 6 3 1 0 7 6 1 2 4 9 6 2 6 5 5 11 12 10 7 3 4 8 5 1 2 4 3 4 6 3 4 5 7 6 4 5 5 4 4 3 4 4 2 2 2 1 3 2 2 1 1 5 11 12 11 11 10 9 9 9 9 9 8 8 6 6 7 7 7
45 44 44 42 42 42 40 38 38 37 35 32 19 5 3 9 20 28 16 7 5 1 3 8 6 3 4 5 7 4 2 7 7 7 8 10 6 3 6 7 6 5 3 6 6 6 5 3 3 6 7 9 6 2 5 6 3 2 3 4 3 2 3 2 3 3 2 1 1 1 4 9 9 9 10 9 6 6 6 8 8 7 8 7 6 5 5 8
46 45 44 42 43 41 39 39 35 32 33 27 17 9 9 22 33 26 8 5 6 1 1 3 2 4 5 5 6 5 3 2 4 8 8 9 6 2 6 6 5 6 5 5 6 5 3 2 2 6 6 8 7 4 6 6 3 1 2 3 2 4 3 1 4 5 1 1 1 2 5 8 5 7 9 4 1 4 5 6 9 8 8 8 7 7 8 9
46 45 44 44 43 41 40 36 29 29 29 21 18 11 15 28 29 17 6 4 4 2 1 2 0 3 6 5 5 4 4 2 1 4 6 7 6 4 4 2 3 6 5 5 5 3 1 2 2 7 4 4 6 6 6 6 5 2 4 3 2 6 6 4 6 5 3 3 1 1 5 5 1 4 7 1 2 5 3 4 8 6 6 7 7 8 8 8
47 45 46 44 41 44 38 24 21 28 23 17 18 13 18 26 20 11 5 3 4 4 4 5 2 5 8 4 3 4 5 3 2 3 6 6 4 3 4 2 1 3 5 5 3 1 2 1 1 5 6 5 5 6 4 4 5 3 3 3 4 6 7 8 7 4 2 2 1 1 5 4 1 3 3 1 5 6 4 6 7 4 4 5 5 5 5 5
48 46 47 44 44 46 29 13 23 27 14 14 20 17 20 23 14 7 3 2 5 5 5 3 1 6 9 2 3 6 5 6 4 3 3 4 3 1 3 5 2 2 3 3 3 1 3 3 1 4 5 5 6 5 5 6 5 2 1 3 7 7 8 8 7 3 0 1 1 1 2 4 5 3 1 1 5 6 6 7 5 3 4 4 3 4 4 4
48 48 47 45 45 38 19 18 29 23 11 13 19 19 21 19 8 3 3 4 4 4 4 2 0 5 5 2 2 1 1 5 7 4 1 3 3 0 3 5 4 5 2 3 5 1 3 4 5 6 5 5 5 1 3 7 3 0 1 2 5 6 6 6 5 2 1 1 4 2 2 4 5 2 1 1 4 5 7 6 4 3 3 2 2 3 3 3
49 49 46 47 44 28 17 23 28 25 18 16 18 21 21 14 5 1 2 3 3 3 2 3 4 4 3 4 3 2 0 2 2 3 2 3 3 2 2 3 5 9 4 1 3 1 1 2 3 4 5 4 2 3 1 2 1 3 5 5 6 5 5 3 2 3 2 3 5 2 2 4 5 2 2 0 2 6 6 3 2 2 2 1 2 2 2 2
50 49 47 49 40 23 18 20 25 31 23 16 21 24 18 9 4 5 4 4 4 3 1 3 4 5 8 9 3 0 2 2 2 4 3 2 4 4 2 2 5 8 4 5 5 2 1 0 1 0 1 2 4 4 3 2 4 8 7 7 8 4 3 2 1 1 2 4 2 2 2 3 4 2 3 2 2 3 3 1 3 2 2 2 2 2 2 2
50 48 49 48 37 26 18 12 26 33 20 18 25 21 12 3 1 6 5 2 5 3 2 3 4 7 14 15 7 3 3 2 2 8 7 3 4 4 3 2 3 4 2 3 4 1 2 2 1 1 1 2 4 5 5 3 4 4 3 6 7 3 1 2 1 0 4 4 1 2 2 3 5 3 1 1 2 2 2 2 5 4 2 2 2 2 2 3
50 48 49 44 36 32 19 13 30 31 19 23 23 10 6 4 2 6 4 3 5 5 5 5 4 9 15 12 7 5 5 3 3 7 8 5 6 6 4 4 5 4 4 5 3 1 3 2 1 2 1 3 3 5 5 1 2 2 4 8 6 3 3 3 2 2 5 2 2 1 1 3 7 6 5 7 6 4 4 3 3 2 3 3 3 2 2 3
51 49 46 38 37 33 18 20 34 29 23 26 15 2 3 6 7 5 5 5 3 2 5 5 4 10 13 9 6 4 3 3 3 3 3 3 6 5 1 1 4 3 3 5 4 3 2 1 1 3 2 3 3 5 5 4 5 5 7 7 6 5 4 5 3 1 3 0 2 0 1 3 5 5 7 11 6 1 2 5 4 4 6 6 5 5 4 4
51 49 42 33 34 29 17 24 33 29 29 23 9 3 5 7 6 4 6 4 1 2 4 7 10 12 10 5 5 5 2 1 3 4 4 4 6 5 2 2 2 1 3 4 3 5 5 3 3 4 2 2 3 2 1 4 5 3 1 2 5 4 3 5 3 2 2 2 2 1 2 3 2 0 3 6 3 2 3 4 4 5 6 6 5 5 5 3
50 45 38 29 27 21 17 26 33 31 27 13 5 7 9 9 6 5 8 5 2 4 5 7 13 12 6 2 1 3 0 1 3 3 6 7 7 8 7 7 4 2 5 5 3 3 3 1 1 0 1 1 2 2 2 4 4 1 1 1 3 2 2 2 1 0 1 1 2 3 3 3 2 4 3 2 3 3 3 3 3 5 4 3 4 4 3 1
46 36 29 25 22 19 20 28 33 29 19 7 6 9 7 5 4 4 7 6 5 9 11 9 8 8 7 3 2 4 1 2 5 4 4 3 4 8 8 6 6 6 6 6 3 2 2 1 2 1 0 1 1 1 2 1 2 2 2 3 2 1 4 4 1 1 1 3 2 2 3 2 2 5 2 0 2 2 2 2 3 3 2 2 3 2 1 1
37 27 19 18 21 21 22 29 32 25 12 6 9 9 3 1 1 3 6 7 8 13 14 9 5 5 8 6 6 7 3 3 3 3 4 3 3 6 7 4 5 8 5 2 1 2 3 3 2 2 2 2 2 1 1 2 1 2 3 5 3 1 1 1 1 1 0 4 2 1 4 3 1 3 2 1 2 3 2 2 1 2 2 2 2 1 1 2
29 21 12 14 22 21 22 29 28 17 5 4 11 9 2 1 1 3 7 9 10 11 11 8 3 2 7 8 7 8 7 5 5 4 5 5 3 6 10 5 4 7 4 1 1 2 1 3 2 1 0 1 1 1 2 2 1 0 1 3 2 2 2 2 2 2 2 3 2 1 2 3 4 5 1 1 3 2 2 2 2 3 3 2 1 0 1 2
24 13 6 14 22 21 25 28 19 8 3 6 12 8 2 2 1 2 6 9 7 7 8 5 1 1 5 8 8 9 7 6 8 6 4 5 4 4 8 5 2 6 4 1 2 2 1 1 2 1 1 1 1 2 4 4 2 2 1 2 0 1 2 2 2 1 3 3 2 1 1 3 5 5 3 4 3 1 2 3 4 4 3 2 1 0 1 1
14 6 4 17 24 24 29 24 10 4 5 7 7 4 2 3 2 2 2 4 3 3 5 4 3 4 4 4 5 7 6 5 9 6 3 5 4 1 4 4 4 5 2 3 1 3 1 1 2 2 1 2 2 2 4 4 4 3 4 5 3 1 1 1 1 1 1 2 2 2 2 2 2 3 5 5 2 2 2 2 3 4 2 2 1 1 2 2
5 4 6 20 29 29 26 16 6 6 5 2 2 2 1 2 4 4 0 2 2 0 1 3 5 6 5 5 5 5 4 4 7 5 2 5 6 4 5 7 8 7 4 2 2 3 1 1 4 4 2 3 2 1 2 1 0 2 3 5 6 4 3 4 3 1 0 1 2 1 3 3 1 2 3 2 1 2 2 1 2 3 3 4 3 3 2 2
2 5 10 26 36 30 19 7 4 4 1 1 2 2 2 2 4 7 3 1 2 1 2 3 4 4 5 5 5 7 7 5 6 6 3 6 9 6 5 7 10 12 9 4 2 1 1 3 4 3 2 2 2 1 1 1 1 1 2 2 3 3 4 5 5 3 3 1 1 1 2 3 0 1 1 1 2 2 1 2 2 2 4 4 4 4 2 2
2 7 15 31 37 25 11 6 4 3 2 1 1 2 1 1 3 5 4 2 1 1 2 2 2 2 2 3 4 8 9 6 6 7 3 4 5 3 3 8 11 12 9 4 2 2 1 3 4 2 1 1 2 0 1 0 1 2 3 2 2 2 2 1 2 3 4 4 3 2 3 4 0 1 1 2 3 4 3 3 3 2 2 4 4 4 3 2
3 6 9 26 34 19 8 7 8 8 5 1 2 2 1 1 3 4 4 3 1 2 3 3 2 2 2 3 5 9 11 6 5 5 2 3 3 2 2 10 12 11 7 4 6 6 3 3 5 4 3 1 1 2 2 2 3 4 2 2 2 2 4 3 1 2 2 5 5 4 6 4 0 1 1 1 2 4 3 3 3 3 3 4 4 3 2 1
6 4 2 13 19 11 4 4 5 8 7 4 4 5 3 2 1 1 3 3 1 1 3 2 1 2 4 4 4 6 11 5 2 4 2 2 2 2 1 8 11 10 4 2 6 7 4 4 6 6 6 5 5 6 6 5 4 2 2 3 5 7 7 4 2 2 4 4 5 6 7 2 1 1 1 2 2 4 4 3 3 3 3 4 3 3 2 2
5 3 3 6 7 6 3 0 2 6 9 8 6 5 5 5 2 1 1 3 1 1 2 1 2 3 4 7 6 7 10 2 2 4 5 3 2 1 1 4 6 4 2 4 9 7 2 2 5 9 9 9 10 11 9 6 6 7 8 7 9 10 8 4 3 3 5 4 4 10 9 2 0 3 4 4 3 4 4 4 4 5 5 4 3 2 2 3
2 2 5 5 5 8 6 3 5 7 9 11 7 5 7 8 6 2 1 1 3 3 2 2 3 5 7 11 8 7 9 3 2 4 6 3 1 1 1 1 2 1 3 4 8 5 3 3 7 10 11 9 7 6 6 8 9 13 13 10 9 9 8 7 7 7 4 5 5 12 10 6 5 6 6 5 5 4 5 6 7 6 6 4 2 2 3 4
1 1 1 0 2 7 9 9 9 9 12 11 5 5 9 10 10 8 2 1 1 3 1 1 4 7 12 14 9 5 7 4 1 3 4 3 3 2 2 2 1 1 2 2 4 3 4 6 6 8 11 8 1 3 5 8 7 8 10 12 12 12 11 12 13 10 8 6 13 14 12 12 10 7 6 6 5 6 5 4 3 2 3 3 3 3 4 4
1 2 1 3 2 4 7 8 8 9 13 12 4 4 9 12 12 7 3 4 4 4 2 5 8 8 10 13 9 7 9 8 5 4 3 4 4 3 3 2 1 0 2 3 2 1 4 6 4 6 11 8 2 3 4 6 5 3 6 10 13 13 15 16 16 15 12 12 16 11 7 9 9 8 7 5 3 2 1 1 1 3 4 5 5 5 5 4
1 1 1 1 2 4 7 10 10 9 10 10 7 4 6 10 10 5 2 4 9 8 3 6 11 8 8 10 8 8 13 12 11 10 8 7 5 3 4 4 2 1 1 3 3 0 2 4 4 5 7 6 3 3 1 3 5 4 3 5 9 11 13 15 16 15 13 14 16 9 4 7 6 7 6 2 3 2 0 2 4 4 5 5 5 5 6 5
1 1 1 2 3 4 8 8 9 9 8 9 10 6 6 9 10 7 3 1 5 8 5 7 10 6 4 7 6 7 10 8 9 13 14 12 9 6 4 4 6 7 4 4 4 2 3 2 3 4 5 5 2 4 4 4 2 2 3 7 11 11 11 13 14 14 13 14 16 12 9 9 6 7 5 4 2 3 5 6 6 6 6 6 6 6 5 5
1 1 0 2 3 3 6 8 8 8 7 9 10 6 4 6 7 7 5 1 2 1 3 9 12 7 4 8 7 5 6 5 4 6 7 6 5 4 2 4 10 12 9 7 4 2 5 5 3 5 8 5 0 3 6 6 2 3 6 11 15 15 15 14 12 12 13 13 13 11 9 5 7 9 7 6 5 5 7 8 7 7 7 6 6 7 6 4
Wind_Direction
185 184 184 182 180 182 182 182 185 186 188 191 191 190 190 192 195 195 192 193 193 194 195 195 196 196 198 197 198 202 199 195 194 187 208 239 241 239 250 255 247 232 235 242 244 238 226 218 205 192 178 160 4 165 142 55 60 221 209 206 191 171 183 177 178 177 108 146 156 169 186 186 162 162 171 173 193 118 152 190 165 189 222 254 22 117 143 151
185 184 184 181 180 182 182 182 184 186 188 188 191 192 190 194 196 193 190 191 192 192 192 191 191 190 194 197 198 199 191 189 191 197 222 238 244 240 239 240 243 242 234 230 223 204 204 219 185 175 196 187 271 155 170 205 257 212 163 208 208 168 137 172 169 155 17 147 150 164 189 200 170 157 169 194 179 159 192 194 190 210 199 189 206 163 156 159
185 184 183 181 180 182 181 181 182 184 187 185 188 190 189 193 192 190 189 190 191 190 190 189 189 188 191 192 193 192 179 176 194 227 228 231 243 243 236 233 236 243 237 231 223 206 217 225 181 173 204 202 117 164 176 150 249 194 203 215 188 152 124 99 173 144 70 129 146 157 173 203 159 143 172 197 172 182 212 201 190 209 206 188 156 159 164 166
184 183 183 181 180 181 181 181 182 183 186 184 185 187 188 187 187 187 187 189 189 188 188 188 186 186 186 183 181 176 170 174 214 230 230 234 246 243 233 228 230 238 231 224 221 211 223 216 180 181 201 185 62 183 176 111 236 169 212 238 113 142 146 143 181 120 86 163 151 142 149 176 144 146 186 181 175 203 224 218 208 212 199 178 152 162 171 173
183 183 183 181 179 181 183 182 182 183 186 186 184 186 185 184 186 184 185 188 185 184 186 186 183 181 178 171 167 167 172 209 219 219 230 239 246 237 225 224 227 231 220 210 206 197 207 193 170 182 208 180 143 175 169 79 353 168 211 344 56 220 148 123 142 119 111 108 145 144 155 156 130 167 197 194 206 211 225 228 227 232 181 165 157 164 172 180
182 183 183 183 181 181 182 182 180 182 187 187 184 184 184 184 186 183 183 185 181 182 183 182 179 173 169 164 166 172 185 240 168 193 222 233 237 223 210 217 220 216 210 201 183 176 186 185 184 190 185 173 169 172 140 97 322 202 177 39 75 308 45 112 117 136 151 151 159 159 146 132 148 182 188 216 226 82 56 2 310 332 102 144 148 160 174 184
182 182 183 184 183 182 180 179 179 182 186 185 182 183 184 184 186 184 182 182 180 179 180 177 172 167 165 162 165 182 225 254 174 129 216 221 223 206 199 210 212 205 201 187 167 169 183 189 191 188 168 162 180 168 120 124 292 258 155 134 134 344 11 53 98 135 167 163 151 140 138 150 178 177 119 230 233 109 82 20 5 63 122 142 149 167 182 188
182 182 183 184 184 183 179 178 179 181 182 180 179 180 182 184 185 184 182 182 180 177 179 174 167 166 164 161 160 187 235 230 189 84 102 200 202 195 192 200 204 199 195 187 175 170 176 185 182 182 181 185 175 157 144 149 188 246 148 142 145 23 51 54 99 126 138 130 105 148 156 151 165 136 162 230 227 166 97 59 72 109 133 157 166 175 184 191
181 181 181 183 183 182 179 178 178 178 178 176 176 178 180 182 184 184 183 181 179 179 178 171 168 166 164 164 165 189 216 217 203 88 41 195 194 190 187 192 197 194 192 190 184 173 173 184 183 194 189 192 173 155 169 189 196 159 123 131 134 92 73 90 103 109 127 109 157 171 141 68 67 357 246 223 190 60 340 131 124 134 157 175 177 181 186 193
180 180 180 181 180 181 180 177 175 175 175 172 176 180 178 179 182 182 180 177 178 179 174 171 167 165 166 168 178 197 207 206 214 228 343 198 189 185 185 190 192 190 185 184 187 180 182 185 168 188 181 137 173 151 165 204 162 109 116 106 100 101 68 44 102 98 118 97 259 182 127 68 97 270 242 154 48 349 216 182 172 186 186 187 184 186 190 196
179 179 179 178 178 180 179 175 173 172 171 168 174 178 175 178 182 179 176 175 176 178 174 170 166 168 172 180 190 197 165 184 206 214 216 180 184 184 185 192 191 187 179 175 195 195 199 185 157 134 259 153 144 125 84 176 116 121 129 105 81 95 92 56 102 104 145 112 311 185 122 82 109 229 226 98 28 285 209 194 192 213 203 189 189 188 194 202
178 178 177 177 177 179 178 173 170 169 168 167 170 172 170 176 181 177 174 173 175 178 173 169 170 171 173 198 209 200 136 178 190 190 189 174 178 182 184 192 191 189 180 175 203 203 208 188 163 124 334 161 141 144 138 130 121 130 145 119 106 125 105 51 83 72 302 135 259 206 157 188 192 215 176 94 15 152 205 209 196 214 211 191 193 197 202 205
177 176 176 175 175 176 175 171 168 168 169 168 166 167 170 173 175 174 171 171 173 173 170 169 172 173 177 205 216 217 201 176 172 179 178 170 174 183 188 190 188 190 187 189 206 203 205 190 169 124 22 154 130 157 123 98 127 142 165 132 137 176 146 44 22 316 276 130 302 240 223 215 202 213 131 94 309 158 200 207 202 212 208 202 199 207 212 208
175 175 175 174 174 174 173 172 172 172 170 166 164 165 169 167 166 168 166 166 166 166 168 171 171 171 191 213 203 210 204 168 171 178 171 168 168 175 187 181 179 186 187 201 208 198 196 176 151 113 59 57 114 152 119 95 300 138 144 188 161 195 169 82 32 298 188 144 301 234 239 249 186 184 110 78 202 196 220 204 201 210 206 213 205 214 221 213
174 173 173 174 173 173 173 172 173 176 170 162 162 164 166 162 158 162 162 159 159 165 165 168 170 166 207 228 213 197 189 171 181 182 175 172 164 161 174 170 169 176 176 186 177 168 170 156 135 115 88 38 141 148 124 111 72 116 163 177 179 219 169 102 67 344 175 142 235 223 240 256 210 141 108 76 164 199 236 222 207 217 216 219 211 221 227 222
172 172 171 172 172 172 172 170 171 174 166 157 159 160 158 156 155 155 156 153 156 163 158 162 173 179 214 198 170 184 184 185 184 184 180 173 171 163 153 150 141 140 139 133 133 130 133 131 114 93 107 142 168 151 135 144 153 191 224 167 163 207 176 142 120 21 0 136 205 229 266 267 249 52 106 95 125 166 238 243 236 235 230 227 219 222 227 229
171 171 170 171 172 172 171 169 168 167 161 155 155 153 149 149 151 147 149 151 150 151 147 154 171 182 270 165 157 185 182 182 178 178 178 173 179 162 144 132 117 124 119 116 124 116 90 86 101 211 118 150 182 157 161 181 176 171 243 134 149 202 180 177 148 92 355 204 210 209 256 256 200 161 194 159 135 151 248 250 246 244 242 234 223 224 228 232
170 170 170 171 171 171 171 168 164 162 157 153 152 150 145 143 145 141 140 140 132 131 130 144 162 178 240 178 174 195 165 165 167 170 175 171 169 160 146 127 128 130 118 113 125 100 50 38 177 159 145 167 177 184 187 186 174 172 184 175 161 206 219 209 150 110 231 202 217 203 235 250 239 236 240 202 157 234 256 254 259 255 253 246 233 234 232 232
169 169 170 170 170 169 168 164 162 159 155 152 150 144 136 129 129 128 135 139 133 133 149 171 173 195 195 171 164 130 143 153 156 159 166 165 162 156 135 121 130 130 134 147 161 162 126 121 168 173 173 181 186 201 205 163 172 175 174 166 157 177 207 214 96 46 288 197 220 221 233 254 253 251 255 221 149 246 264 261 258 250 248 247 238 238 233 235
169 169 169 168 168 166 164 164 163 161 159 153 148 142 135 138 133 131 153 163 165 132 123 172 182 265 44 146 141 129 130 137 140 152 162 163 155 140 104 108 120 104 150 157 147 157 179 163 186 193 180 180 183 189 80 89 154 154 142 136 155 176 170 117 93 54 0 222 223 233 253 266 265 263 264 247 190 251 262 259 255 245 236 232 231 234 229 232
168 168 168 167 167 165 164 166 166 164 161 156 154 152 159 162 158 161 159 153 158 345 311 165 166 216 11 112 144 139 128 121 99 147 160 163 159 152 138 167 158 157 164 117 114 117 211 198 195 183 150 147 144 118 93 95 117 143 162 166 172 215 136 83 82 72 48 239 218 225 266 262 259 263 265 250 232 245 246 247 250 245 237 226 226 233 232 233
168 168 167 166 166 165 165 168 166 163 161 161 168 193 234 166 126 141 142 114 133 169 145 143 135 65 55 141 162 161 122 125 125 154 162 164 175 177 166 174 171 161 95 127 129 131 200 211 168 118 106 96 91 103 114 97 108 140 160 168 177 181 129 104 103 86 61 247 238 70 264 264 260 261 262 246 236 239 236 240 249 250 243 231 225 231 236 243
167 167 166 166 166 164 165 168 165 163 164 169 184 232 196 146 131 137 132 102 128 119 132 146 150 141 111 155 195 229 163 142 154 174 174 170 180 185 153 163 161 133 162 181 164 164 187 217 113 126 140 125 108 118 124 107 115 139 137 165 173 147 166 190 153 125 55 330 325 317 269 275 263 253 253 242 238 254 256 255 256 253 248 246 248 253 250 249
167 166 166 165 164 163 166 167 164 166 170 178 199 210 155 144 142 142 122 95 126 54 136 145 140 160 149 162 194 204 164 121 157 164 178 178 158 148 158 150 135 140 181 190 168 169 157 6 108 140 157 149 137 155 163 163 176 213 195 173 135 162 191 10 116 131 114 173 320 302 271 271 249 239 246 227 212 262 257 254 250 239 236 246 263 265 252 249
166 166 165 163 163 163 163 162 163 169 173 188 212 205 154 151 152 150 116 102 135 68 96 170 18 185 173 156 166 179 143 83 69 137 165 178 147 139 153 113 155 167 166 148 150 169 100 0 167 143 146 152 147 168 191 196 184 204 227 195 140 168 157 100 126 145 183 199 134 324 261 257 190 232 239 218 336 254 218 232 245 229 209 221 239 246 241 241
166 165 163 162 162 162 159 159 166 168 173 202 210 182 160 163 162 161 126 89 164 139 148 169 168 175 166 153 153 157 151 145 0 76 138 165 151 135 146 123 303 165 150 138 138 168 101 41 201 145 145 147 160 183 196 203 188 194 220 160 124 141 135 135 155 169 210 202 95 326 252 255 276 236 210 17 299 271 242 233 237 227 213 212 220 231 231 237
165 164 162 161 163 162 158 155 164 163 173 211 197 169 167 170 167 176 133 92 181 157 140 160 304 171 161 155 168 166 167 142 117 104 121 150 155 121 159 164 150 134 148 146 160 174 114 122 156 133 137 147 172 189 186 193 188 175 203 130 129 138 142 148 158 176 301 80 141 152 278 271 269 248 122 338 276 269 258 238 219 212 222 210 216 235 236 241
164 164 161 162 163 163 159 150 158 170 183 185 179 168 167 168 165 182 146 151 175 132 138 168 59 152 144 72 118 148 162 125 134 156 56 84 134 41 169 173 151 126 129 190 183 164 97 160 174 147 149 172 182 183 175 184 180 158 220 116 122 125 128 140 147 142 63 250 209 142 30 266 256 234 117 332 272 257 251 228 189 183 191 190 234 251 253 255
164 162 161 162 162 165 167 156 162 180 178 163 168 166 161 160 153 127 167 181 154 99 120 141 137 142 140 130 106 29 89 82 113 149 99 94 91 37 145 162 124 114 74 348 150 79 38 194 196 160 170 174 130 35 339 212 108 143 154 106 95 91 88 106 131 126 121 244 224 126 30 263 258 232 171 87 267 250 248 211 165 194 192 230 259 270 282 278
163 161 161 160 160 162 159 160 175 179 170 163 165 159 152 155 161 157 187 197 145 119 87 140 164 154 154 154 124 89 153 49 53 120 113 122 74 43 81 97 102 111 68 36 71 47 314 278 318 348 168 139 107 70 19 350 111 143 154 112 98 86 70 83 52 87 189 239 218 75 4 278 269 252 190 201 243 243 258 154 152 199 221 228 238 272 307 314
162 162 162 161 162 162 150 164 187 179 172 166 159 154 150 126 162 171 178 169 128 130 157 162 158 151 166 169 150 151 135 63 143 146 145 152 99 100 140 143 102 99 112 93 71 39 94 108 166 75 62 145 119 83 48 47 131 146 169 134 117 95 90 124 82 167 226 227 108 48 330 252 241 246 176 270 281 248 255 161 148 169 207 228 234 275 311 320
162 162 164 164 165 165 162 180 182 174 169 161 153 159 161 124 198 191 160 151 154 170 178 171 172 169 174 169 138 137 134 109 175 161 148 155 151 149 161 174 159 142 170 160 126 108 108 99 76 77 203 223 153 106 80 73 218 207 167 157 150 136 155 191 184 208 233 230 67 27 294 238 244 260 275 273 263 225 230 236 197 218 275 284 301 322 317 312
162 163 164 167 166 167 173 178 174 169 160 157 153 165 155 159 195 179 148 174 171 144 147 133 141 158 161 158 143 142 119 120 178 172 135 141 158 157 42 119 152 143 165 156 141 149 145 149 166 146 175 229 201 147 141 179 203 191 168 168 171 151 164 196 180 232 258 274 58 301 261 250 256 267 257 256 265 134 220 251 258 271 280 288 308 318 306 302
163 163 164 167 167 169 174 172 172 166 156 156 160 141 153 184 185 129 149 186 38 83 120 118 128 142 149 152 161 162 96 75 167 156 141 147 162 173 185 185 184 64 110 138 160 171 178 189 177 163 155 180 204 222 166 146 157 186 177 162 180 170 183 197 179 206 216 105 90 197 236 231 219 89 235 250 301 348 254 262 271 267 271 283 298 296 286 294
161 162 163 163 164 165 166 170 172 164 156 158 167 163 180 192 178 156 163 162 128 125 109 119 134 142 147 88 133 200 322 120 172 153 153 165 176 182 184 184 194 164 139 157 182 174 183 205 67 59 271 173 182 291 347 101 124 179 2 68 201 185 130 126 65 72 106 75 154 193 246 250 272 291 266 253 287 264 239 247 256 261 266 277 287 280 271 304
156 157 159 159 159 158 161 170 169 164 165 164 162 182 204 191 167 167 154 135 144 138 122 127 137 144 156 134 174 223 320 126 168 174 170 185 193 187 187 180 181 194 177 157 158 167 166 134 9 359 136 51 0 310 331 96 145 147 158 178 197 58 99 116 108 51 359 257 196 173 251 270 297 282 279 61 265 240 215 221 226 262 283 277 266 260 266 329
150 151 152 156 159 157 162 168 165 167 180 180 176 191 205 118 102 128 132 120 134 140 134 140 159 163 161 159 181 189 158 120 171 200 175 174 204 187 189 197 181 192 200 142 157 211 165 118 14 341 104 60 330 241 42 11 95 145 173 168 141 65 63 129 167 101 141 243 215 167 246 268 234 248 336 10 236 213 212 228 232 268 263 235 237 244 332 299
143 142 137 155 162 157 160 165 163 165 185 190 194 201 162 81 115 126 137 129 136 153 152 150 165 181 167 167 171 174 169 160 174 190 167 175 214 178 175 194 188 185 197 96 157 204 136 114 65 342 61 60 335 206 138 78 28 309 193 142 127 186 200 176 182 170 183 229 248 198 251 270 213 212 290 275 206 206 213 200 197 213 206 202 211 30 319 268
135 133 125 158 161 155 157 159 155 154 189 196 198 200 149 103 124 164 152 135 130 158 162 156 149 163 180 171 150 158 181 175 164 175 181 186 210 178 175 188 174 175 173 121 167 157 106 147 137 69 330 351 327 233 187 162 98 52 139 139 7 282 203 178 164 181 201 211 243 246 242 237 214 210 221 204 180 168 175 165 185 202 192 189 187 125 225 173
135 125 131 160 158 152 149 146 138 165 202 206 196 182 124 103 125 238 183 125 117 164 162 161 159 150 159 157 137 155 181 170 165 185 212 178 181 217 200 184 143 151 116 60 133 149 119 206 145 108 341 216 187 219 208 179 145 147 167 171 175 106 53 201 121 59 225 194 197 239 248 239 219 204 209 205 177 164 164 142 177 202 197 187 205 210 182 115
149 115 140 163 157 149 143 137 153 190 199 206 151 119 142 135 141 165 263 33 53 15 125 135 150 148 142 151 156 154 153 155 173 192 218 185 196 218 207 183 151 141 121 88 145 162 149 131 134 135 177 194 185 349 300 281 119 166 190 184 176 144 132 185 192 129 20 216 177 208 261 268 230 185 211 215 198 197 196 167 188 198 189 177 181 196 173 116
144 119 149 164 159 151 146 142 166 177 179 166 119 90 128 136 140 158 169 48 58 46 60 103 131 140 143 156 160 155 154 158 178 191 204 205 208 215 205 177 153 152 158 151 144 146 81 97 112 126 178 220 327 8 198 273 310 299 266 207 170 162 171 197 207 179 136 129 106 102 281 285 51 122 230 262 281 272 281 272 242 201 176 167 163 173 172 132
76 113 143 161 162 158 153 153 165 180 211 204 58 38 71 110 127 148 170 177 109 107 114 110 128 140 152 154 147 160 166 164 184 194 196 196 205 229 183 158 149 157 164 149 136 150 97 107 112 97 81 359 326 211 143 140 247 242 238 199 182 199 188 185 199 157 146 160 153 160 248 261 141 100 226 247 276 279 270 253 248 231 172 168 169 168 160 146
105 98 134 162 168 171 167 171 187 186 177 102 76 100 57 41 127 144 173 180 168 158 136 129 161 152 149 152 147 167 175 178 204 206 183 169 182 10 148 160 155 163 177 173 169 178 182 151 129 113 118 139 211 206 187 189 212 224 209 158 162 117 89 90 117 118 194 198 174 199 243 246 201 46 177 192 262 272 262 232 221 222 193 182 179 163 148 169
128 88 72 163 173 187 191 185 189 170 154 132 141 151 132 83 70 126 154 136 95 185 139 136 183 112 119 135 114 163 181 177 188 192 158 152 166 21 150 180 174 176 186 116 141 159 182 173 155 158 166 172 189 200 201 191 185 199 164 152 177 166 151 162 150 154 217 194 160 210 236 233 38 313 208 175 213 241 233 203 207 234 227 204 185 163 169 216
141 127 128 146 173 206 215 89 150 162 165 159 154 165 157 143 131 0 92 130 180 197 92 102 156 92 119 150 135 167 189 170 41 170 163 151 158 29 351 197 187 179 85 106 138 144 143 180 191 197 195 192 200 204 191 149 140 185 194 178 183 185 174 157 131 177 201 151 169 225 232 215 156 220 214 204 199 212 207 183 195 221 226 223 204 186 224 242
120 139 162 147 157 188 199 199 172 168 174 173 167 170 163 149 145 137 20 198 188 169 68 48 162 155 160 164 157 172 182 154 55 160 154 141 142 33 33 143 164 14 33 141 159 133 111 197 207 214 222 220 211 200 170 153 172 197 194 176 173 177 167 173 200 204 150 117 224 235 228 226 221 202 209 207 184 199 211 196 196 204 207 205 188 209 253 254
89 110 212 56 134 184 194 192 180 167 171 178 177 159 160 155 157 166 166 59 164 193 153 99 198 191 172 166 160 152 159 150 122 150 138 135 144 112 60 69 136 334 36 144 174 116 145 206 203 203 226 234 156 105 169 182 195 200 186 176 172 169 170 189 212 208 157 175 238 237 217 218 211 188 211 217 187 196 204 192 196 209 212 202 182 210 240 239
71 79 346 348 18 172 164 145 143 155 170 177 182 171 173 169 165 164 137 123 169 215 198 172 192 193 173 169 159 149 166 174 179 188 169 146 147 136 122 121 158 320 77 135 184 132 171 200 178 183 222 230 128 105 190 189 185 185 185 183 175 173 183 196 211 212 192 211 239 234 209 222 204 181 209 218 178 187 161 70 265 229 223 207 189 210 227 223
79 86 120 40 56 127 130 127 143 160 170 181 187 182 180 176 166 150 115 160 176 186 194 180 178 168 168 176 168 172 185 181 174 181 169 150 161 179 174 174 158 124 124 149 160 218 213 197 141 151 216 226 138 111 149 175 183 178 156 171 174 181 196 207 217 217 207 226 242 238 250 257 212 182 213 214 106 98 192 238 234 231 235 221 205 216 220 224
53 6 130 115 98 132 141 142 157 164 171 191 193 178 179 185 169 142 116 275 185 175 172 160 150 130 142 172 173 185 188 174 168 176 169 162 172 178 179 182 156 151 165 170 156 160 192 189 102 131 204 223 158 140 130 95 102 141 151 179 182 185 199 210 217 213 205 221 235 237 254 255 186 158 207 240 177 177 216 230 232 234 232 221 223 235 233 232
57 18 15 109 98 144 157 147 156 170 180 193 190 174 167 175 163 144 140 47 354 137 153 151 143 123 140 176 193 196 166 145 143 160 158 147 135 125 119 157 157 158 166 171 164 157 169 166 131 168 200 217 63 144 138 108 113 217 212 195 187 193 204 207 214 217 211 214 219 221 231 218 139 146 182 216 224 219 224 229 232 234 228 212 215 230 235 240
Height
743 745 748 752 755 759 762 764 769 773 776 779 781 784 786 789 790 793 795 796 798 799 801 803 805 807 809 811 814 815 818 820 821 823 822 817 816 819 820 819 820 820 821 821 822 822 822 821 820 821 820 820 821 822 824 825 826 826 830 834 836 840 839 834 835 835 832 833 840 845 842 840 844 847 847 847 846 847 849 849 849 849 850 850 851 852 852 853
741 743 746 749 752 757 760 762 766 771 774 777 780 782 785 787 789 791 793 795 797 798 800 802 804 806 808 810 813 815 818 820 822 822 816 813 815 818 819 819 819 819 820 821 820 821 821 821 820 820 821 821 823 823 824 825 826 829 833 835 834 833 832 830 829 831 833 831 835 841 841 840 841 843 845 846 846 847 848 848 848 849 848 849 851 852 852 853
738 742 745 747 750 754 758 760 764 769 772 776 778 781 783 785 788 790 792 794 795 798 799 801 803 805 807 809 812 815 818 821 823 818 810 810 814 816 818 818 817 818 818 819 818 819 820 819 819 821 822 823 823 823 824 826 827 830 833 832 830 829 830 833 831 832 835 832 834 839 842 843 841 842 844 844 846 847 846 844 846 848 846 847 850 852 853 854
737 740 743 746 748 752 755 758 762 766 770 774 776 779 782 783 786 788 790 792 794 797 798 800 802 804 807 809 813 815 817 821 818 810 806 809 811 813 815 816 816 817 817 817 818 818 819 819 820 821 823 825 825 824 824 826 827 829 830 829 829 830 829 833 835 835 838 836 834 838 843 844 842 843 843 843 845 846 841 838 840 841 841 843 848 851 852 853
734 738 742 744 747 751 753 756 760 764 768 772 775 777 780 782 785 787 789 791 793 795 797 800 801 804 807 809 813 814 818 822 810 801 805 807 808 810 812 814 815 816 817 816 817 818 819 820 821 822 823 825 826 825 825 826 827 828 831 832 833 832 830 833 838 839 840 838 837 839 841 840 841 843 842 841 842 840 837 835 835 836 837 840 845 848 851 853
732 736 740 743 746 749 751 754 758 762 767 770 773 776 778 781 784 786 788 790 792 794 797 799 801 804 807 810 813 813 817 816 803 799 804 805 806 807 810 813 814 816 816 816 817 818 820 820 821 823 823 824 825 824 825 828 828 828 832 835 836 835 832 836 839 840 841 838 837 839 836 838 841 842 843 842 837 835 836 836 837 838 839 840 843 847 849 851
731 734 738 742 745 748 750 753 756 761 765 768 772 775 777 780 783 785 788 789 792 794 797 799 801 804 807 810 813 814 814 806 799 800 802 802 804 805 808 812 813 815 816 816 816 817 820 820 821 823 823 824 825 825 826 828 828 827 831 835 837 838 836 839 842 842 841 837 838 838 836 839 839 840 845 842 835 835 837 838 839 840 841 841 843 845 846 847
729 732 736 740 744 747 750 752 755 759 763 767 770 773 776 779 782 785 787 789 791 794 796 798 801 803 806 809 810 814 811 802 799 800 800 801 802 804 807 810 812 814 814 814 814 815 818 819 820 821 823 824 822 825 827 827 828 828 831 836 839 840 839 842 843 843 842 840 841 840 838 840 840 842 844 839 833 835 838 839 840 841 841 842 842 843 845 846
727 730 734 739 743 747 749 751 754 758 762 766 769 771 775 779 782 785 787 789 791 793 796 798 801 803 806 807 808 810 805 798 799 799 800 801 801 804 806 808 810 812 813 813 813 813 816 817 818 818 820 823 821 824 826 826 828 827 832 837 839 840 841 842 841 842 842 842 842 839 840 843 845 846 840 834 834 836 838 839 840 841 841 841 841 842 843 844
725 729 733 737 742 746 748 750 753 757 761 764 767 771 775 778 781 784 786 789 791 793 795 798 800 803 805 805 807 807 798 796 799 799 800 801 801 803 805 807 809 810 811 812 812 813 813 814 815 815 818 821 822 826 826 826 826 829 834 836 838 841 841 840 839 842 842 842 842 838 842 844 846 847 836 832 837 838 838 839 840 840 839 840 840 841 842 843
723 727 732 736 740 745 748 749 752 756 760 763 767 771 775 778 780 784 786 788 790 792 794 797 800 802 803 803 804 801 795 796 799 798 800 801 802 803 805 806 807 808 809 810 811 811 811 811 812 815 818 819 823 829 829 827 827 829 831 834 840 840 840 840 838 842 841 841 843 839 842 846 847 845 834 834 839 839 838 837 840 839 837 839 839 840 841 842
721 726 731 735 739 744 747 749 752 756 759 762 767 770 774 777 780 783 785 788 790 792 794 796 799 801 803 803 799 795 795 797 797 798 800 800 802 803 805 806 807 807 807 809 810 810 811 811 811 816 818 817 823 829 828 829 830 830 829 832 841 838 838 841 840 842 841 841 843 840 842 844 844 839 832 836 840 839 838 836 838 839 837 838 838 839 840 841
719 725 729 733 738 742 745 748 751 755 758 762 767 770 774 777 780 783 785 788 789 791 794 796 799 800 802 801 795 794 796 796 796 797 798 799 802 803 805 806 806 807 807 808 809 809 811 811 811 815 818 818 824 827 826 830 832 831 830 831 837 838 838 842 842 843 841 842 844 842 841 836 833 832 831 838 840 838 838 835 836 837 837 838 839 839 839 840
718 723 728 733 737 741 745 748 751 754 759 763 767 770 774 777 780 782 785 787 789 792 794 796 799 801 801 797 793 795 796 796 796 797 797 799 801 803 805 805 806 806 806 807 808 809 810 811 812 815 819 821 825 827 827 832 833 831 833 834 837 838 838 842 845 843 839 842 843 842 841 831 826 830 833 838 839 837 835 832 834 834 835 836 837 838 837 838
717 721 727 732 736 740 744 747 750 754 759 763 766 771 774 777 780 782 785 787 790 792 793 796 799 800 800 796 793 795 795 796 796 796 797 798 799 802 804 804 805 805 806 807 807 809 810 811 813 817 823 824 824 827 830 833 834 834 836 840 843 840 838 842 846 845 840 841 841 840 840 830 825 829 834 838 838 836 833 830 832 833 834 834 835 836 835 836
715 720 725 731 736 740 743 746 749 754 759 762 767 771 774 777 780 783 785 787 790 792 794 798 799 799 799 795 793 794 795 794 794 796 797 797 799 801 803 804 805 805 806 807 807 810 811 812 817 821 824 826 824 824 830 835 837 838 836 840 847 843 840 841 844 848 845 842 839 840 838 829 826 830 833 837 836 835 833 830 831 831 832 832 832 833 833 833
714 719 724 730 735 739 743 746 749 753 758 762 766 770 774 778 781 783 785 788 790 793 795 796 798 799 797 794 794 793 791 791 792 795 796 797 799 800 802 803 804 805 806 807 809 810 811 815 822 823 822 825 824 822 832 841 840 840 838 841 849 848 842 840 841 847 847 843 839 840 840 830 827 830 831 833 835 834 833 829 829 829 829 830 830 831 830 830
713 718 723 729 734 738 742 745 748 753 757 761 766 770 774 778 781 783 785 788 790 794 797 796 798 800 795 791 792 790 787 789 792 794 795 797 799 800 801 802 804 805 807 809 811 812 814 819 822 823 824 827 826 822 830 837 833 835 838 838 846 849 846 841 840 846 847 843 840 841 842 832 826 828 826 828 833 833 830 828 828 828 827 828 828 828 827 827
712 717 723 728 733 737 741 744 747 751 755 760 765 770 775 779 782 783 784 784 785 790 791 789 791 792 787 785 787 788 787 789 791 794 796 797 799 800 800 802 803 804 808 812 814 814 815 820 824 825 827 827 824 818 820 824 822 826 831 832 836 840 843 843 842 849 849 843 841 839 838 833 827 826 824 825 831 832 829 828 828 827 826 826 826 825 825 825
711 717 722 727 732 735 740 743 746 749 752 757 761 767 771 773 778 783 784 781 778 781 781 779 782 784 782 782 784 787 788 790 792 794 795 796 798 800 801 803 805 806 809 812 815 817 817 821 825 822 821 821 820 820 822 824 823 826 831 834 836 834 836 843 846 851 852 843 839 839 838 836 831 826 824 824 829 831 828 826 824 822 823 823 823 822 821 821
710 716 721 726 731 735 739 742 745 748 751 755 756 756 756 754 758 764 772 779 779 779 779 778 780 783 782 783 783 783 786 790 793 793 795 796 796 799 803 804 806 811 815 815 816 819 819 822 821 817 817 819 822 827 828 828 828 829 831 834 839 839 839 846 849 850 854 846 839 845 845 837 831 825 822 823 826 826 823 821 819 817 818 818 819 819 818 816
710 715 720 725 730 734 738 741 744 747 751 754 754 751 748 746 746 748 756 772 780 780 780 780 781 783 783 784 784 782 783 789 794 794 794 796 796 799 804 805 807 813 819 817 817 822 824 821 818 820 825 825 830 832 828 830 832 832 833 833 836 841 842 847 851 852 853 846 840 847 848 833 825 823 819 819 820 819 818 816 815 814 814 815 815 816 816 814
709 714 719 724 729 733 737 741 744 748 750 752 752 751 749 747 749 751 755 766 778 781 780 780 781 783 784 785 785 783 783 787 792 794 793 794 796 798 801 805 808 815 819 815 815 823 826 821 821 826 828 826 832 834 828 830 835 834 834 833 836 842 840 838 846 853 855 852 848 849 847 830 819 819 816 815 818 818 817 817 816 817 815 813 813 813 814 813
708 713 718 723 728 732 736 741 745 748 750 752 752 749 748 749 750 753 756 766 777 780 779 780 780 781 783 783 782 783 784 786 789 791 792 793 796 799 800 804 810 815 817 813 814 818 821 827 831 829 826 823 829 834 829 827 833 838 835 831 835 840 840 838 844 852 854 856 854 849 842 827 818 819 813 812 821 821 818 818 815 815 816 815 814 814 813 812
707 712 717 722 727 731 736 741 744 747 751 753 750 747 748 749 750 751 755 768 779 780 781 781 780 780 779 780 781 781 784 787 789 789 791 792 794 799 802 805 808 813 816 816 817 816 820 833 836 829 827 826 827 831 829 824 829 837 835 830 831 833 838 845 848 848 847 848 853 853 843 827 819 820 814 813 819 815 813 814 810 809 812 814 814 811 811 811
706 711 715 721 726 729 735 740 743 748 752 751 746 746 748 747 751 750 753 772 782 781 782 781 780 779 777 780 781 781 785 789 790 789 790 792 792 795 802 807 809 812 816 817 818 821 828 837 834 827 828 829 828 829 828 827 829 833 834 834 834 832 837 845 845 843 841 843 854 858 847 832 820 812 812 820 818 810 808 807 805 806 807 809 810 808 809 809
705 710 714 719 724 727 731 735 740 746 748 746 742 745 747 747 751 748 756 783 785 775 780 782 780 776 775 780 779 780 787 789 790 791 790 791 792 793 799 807 809 812 816 816 818 824 831 836 834 828 828 830 829 827 826 827 827 831 839 840 835 834 838 842 842 841 842 845 852 855 848 842 830 813 814 824 816 806 805 801 801 804 804 804 806 806 807 807
704 709 713 718 723 726 728 730 737 741 741 740 741 744 746 747 751 747 762 790 784 768 773 779 777 774 775 779 779 782 785 783 788 793 791 791 793 793 797 803 804 809 816 813 816 825 829 830 830 827 828 829 826 826 828 825 825 836 848 844 837 838 840 841 840 841 847 848 843 847 851 846 833 816 816 822 814 805 801 798 799 801 801 803 803 804 804 805
703 708 712 718 723 728 730 731 734 736 737 738 741 744 746 748 750 751 767 782 772 765 770 773 775 776 777 779 782 785 784 782 787 791 792 792 792 793 798 803 803 810 817 812 814 826 830 830 828 824 823 825 830 838 838 828 826 841 850 844 839 843 843 842 841 839 846 847 841 850 859 848 829 814 815 821 814 804 797 795 800 800 801 802 802 803 803 804
702 707 711 716 721 726 730 733 734 733 736 738 740 744 746 749 750 762 781 774 761 768 773 773 774 775 777 780 785 787 785 787 788 789 793 792 792 795 800 804 804 809 816 817 822 830 832 833 832 829 828 831 838 845 846 838 835 842 842 835 837 840 839 842 841 839 845 847 848 862 868 857 838 816 809 813 807 800 796 796 801 800 800 801 802 803 803 803
702 706 710 713 718 723 727 731 731 732 736 737 741 744 745 752 757 769 780 761 754 773 777 774 775 773 774 776 781 787 788 791 789 787 792 793 795 798 800 804 806 812 818 819 826 832 831 832 832 835 839 839 836 839 846 846 842 839 831 827 835 841 841 843 843 845 848 848 855 870 872 864 846 817 803 804 802 801 801 798 798 799 799 799 800 803 803 803
702 706 710 713 716 720 724 726 727 731 736 736 741 743 743 758 766 763 764 752 753 770 770 769 774 773 771 771 778 786 787 790 790 786 789 792 795 796 797 799 802 814 822 820 825 830 828 830 834 837 841 837 828 832 845 846 840 834 827 827 836 846 851 850 850 853 850 850 862 871 870 861 840 812 802 801 797 799 802 799 797 798 798 798 799 801 802 803
701 706 711 714 716 719 722 724 727 730 734 737 742 741 744 760 762 751 753 753 753 760 760 763 771 770 770 774 781 786 785 789 791 789 791 791 793 796 797 798 797 802 812 817 823 828 828 831 835 833 834 833 825 826 836 839 835 829 823 824 832 846 859 859 861 863 856 855 867 873 868 852 828 808 801 797 793 797 802 802 802 802 802 801 801 803 802 801
700 706 711 714 716 719 721 723 727 728 732 736 738 742 750 757 751 743 749 755 755 759 759 762 769 771 773 776 781 783 783 791 792 789 793 794 796 799 799 801 801 797 803 815 819 820 824 827 828 828 829 830 827 824 825 824 827 830 823 821 827 834 843 848 852 852 850 856 869 874 859 834 815 805 798 797 799 803 806 807 808 807 806 806 805 804 801 799
701 706 710 714 716 719 720 723 727 728 732 734 735 743 748 745 740 737 743 752 758 761 761 762 765 771 778 781 783 782 781 790 794 791 793 793 792 794 792 794 800 799 800 811 816 816 818 821 827 835 836 832 828 828 825 820 827 836 831 827 827 823 827 849 862 857 856 858 859 862 847 822 809 799 795 800 802 803 806 807 807 804 804 806 803 800 798 798
701 706 709 713 714 717 720 723 726 729 730 730 734 740 734 727 729 730 734 745 752 755 760 765 767 771 779 783 784 785 781 785 792 793 793 792 789 789 787 786 793 796 791 798 811 815 816 823 832 837 837 835 832 832 829 824 826 833 834 831 831 827 827 848 870 872 867 853 842 846 837 820 813 799 790 797 797 796 800 800 799 800 801 803 799 796 797 797
699 704 708 712 713 716 720 722 726 731 730 727 730 731 724 722 727 729 732 739 743 745 751 761 767 768 774 779 781 782 781 784 792 792 791 794 788 785 787 785 787 789 785 789 801 806 809 824 835 833 831 835 839 835 830 829 828 828 830 828 829 834 830 832 848 862 864 849 837 842 836 823 821 808 791 793 794 792 794 795 797 800 800 799 797 796 797 797
696 702 708 711 713 715 719 723 727 730 732 730 725 724 724 725 729 731 732 734 738 739 742 752 762 763 767 772 775 779 779 781 790 790 788 791 784 777 782 784 784 787 785 786 793 797 802 817 834 837 832 834 836 832 828 831 831 827 826 824 824 831 832 831 839 847 852 849 839 841 844 834 824 809 792 791 793 791 793 796 797 797 796 796 795 795 797 797
693 701 708 711 713 716 719 723 728 730 733 728 720 721 725 727 732 733 729 729 734 737 739 745 755 762 765 763 767 776 777 776 785 786 783 785 782 776 776 777 782 788 787 786 789 795 800 809 827 837 835 833 832 828 825 827 831 831 829 827 826 827 827 829 832 830 833 843 841 839 840 827 812 804 793 789 791 792 794 797 796 794 793 794 795 796 797 797
690 698 708 710 712 716 719 724 730 733 731 722 715 720 727 728 733 735 731 730 732 734 738 742 749 757 762 763 764 770 774 775 780 780 777 780 780 779 776 774 780 789 791 790 789 794 800 804 819 835 837 833 829 826 823 819 823 828 827 827 829 831 832 829 831 834 830 834 840 839 829 810 799 799 794 788 790 793 794 795 795 795 792 793 797 797 797 797
688 695 707 710 711 715 718 724 731 731 728 721 717 723 727 727 731 734 736 736 734 734 736 739 743 749 756 762 762 765 772 776 778 777 777 778 775 774 774 771 776 785 791 792 790 792 798 803 817 834 835 829 826 829 832 826 823 822 819 819 819 824 830 828 833 844 841 836 840 841 830 806 792 796 795 792 794 796 797 797 795 795 794 794 797 797 797 797
686 692 703 708 709 712 714 721 729 728 727 726 723 726 729 728 728 732 736 737 734 735 736 737 742 746 750 754 756 761 768 773 777 775 773 774 768 766 769 770 772 777 781 787 789 792 799 805 820 833 832 829 830 836 844 842 832 825 822 819 815 816 818 817 823 836 844 849 847 846 838 810 792 800 803 800 802 802 803 802 797 796 795 795 796 797 797 797
689 693 702 707 709 710 712 721 730 729 730 733 731 732 733 730 728 732 736 735 733 735 735 736 741 745 747 751 754 758 761 767 772 769 767 770 768 767 771 771 772 775 777 782 788 794 798 802 817 831 831 830 831 833 839 842 835 826 822 822 820 816 813 814 818 822 833 844 840 840 839 809 791 804 809 807 810 806 804 805 800 797 796 796 796 796 796 797
692 696 703 708 710 709 709 715 721 723 729 733 732 732 734 732 730 731 732 732 735 733 731 735 738 740 745 749 751 753 755 761 767 766 766 768 769 774 775 771 771 773 773 775 778 784 790 795 809 828 834 832 832 831 832 834 831 823 820 824 823 819 821 825 826 822 827 833 827 827 827 803 791 802 806 805 806 800 799 802 801 799 797 795 796 795 796 798
692 698 704 708 710 709 708 708 709 716 726 730 728 728 730 732 736 735 730 734 741 735 729 735 739 738 742 747 750 752 752 754 760 764 768 769 771 777 777 773 771 769 770 771 770 775 785 790 797 809 822 828 828 824 816 813 819 822 823 826 822 818 819 818 821 824 824 828 828 820 810 799 794 798 798 798 800 796 795 798 799 800 797 795 795 796 797 797
688 696 702 707 711 710 711 711 709 714 722 723 724 727 726 727 736 739 734 736 744 740 733 737 739 738 742 745 750 754 754 756 760 761 765 769 771 777 779 777 774 772 772 773 771 776 786 790 788 788 794 798 797 795 791 792 805 813 813 816 816 816 815 811 818 823 817 825 831 813 798 800 800 796 794 794 795 794 793 794 796 797 796 795 796 797 798 798
685 689 693 698 705 708 711 713 710 711 714 714 716 721 723 724 730 736 735 735 740 740 736 738 736 734 739 743 747 751 753 758 762 761 763 769 773 779 782 779 777 777 776 774 773 777 785 790 788 785 783 780 779 784 787 789 795 798 800 808 813 816 817 814 814 811 808 822 825 805 798 806 801 792 790 789 791 793 792 791 792 792 792 794 796 797 797 797
688 689 689 688 690 695 700 705 707 708 711 712 713 717 720 723 725 728 732 737 741 738 734 736 736 732 733 736 740 749 756 760 763 764 765 769 773 777 779 779 780 780 778 777 775 776 781 785 785 786 785 782 783 789 790 789 790 791 795 804 810 813 815 813 809 804 805 813 805 789 794 801 795 788 786 785 787 788 787 789 791 791 791 793 795 796 794 793
691 692 693 691 689 691 694 701 707 710 712 713 717 719 718 718 719 721 727 734 738 736 730 730 733 733 733 732 733 744 753 754 757 764 766 767 770 773 774 777 779 780 778 778 779 778 778 780 783 786 786 784 790 796 794 791 792 793 796 801 805 809 808 805 801 798 800 800 789 783 792 795 789 785 782 782 786 788 789 793 792 790 789 790 793 794 793 793
693 692 694 694 695 696 698 704 708 711 713 713 715 719 718 715 716 721 725 726 726 729 730 726 727 733 735 733 732 737 740 738 742 753 760 764 767 768 768 768 773 780 780 777 780 781 779 781 785 787 788 789 794 800 800 798 794 795 801 805 807 809 808 805 800 796 798 798 789 789 798 795 785 782 781 783 790 793 793 791 788 786 786 787 790 792 792 793
693 694 693 694 699 700 699 703 706 709 714 713 709 714 717 714 715 719 724 726 721 722 726 725 728 736 739 737 734 733 735 734 734 740 746 750 753 756 757 758 764 774 778 777 778 777 780 787 789 789 790 791 796 802 804 802 800 802 807 810 808 808 806 801 794 790 794 795 793 798 801 789 778 781 784 785 789 792 789 786 786 785 784 785 787 789 790 791
693 695 693 693 699 703 700 702 707 709 709 706 705 711 713 712 714 715 719 727 726 722 724 724 727 734 738 738 734 732 735 737 737 741 745 745 746 750 754 755 757 763 769 774 776 776 778 782 786 788 785 790 806 811 802 801 806 803 799 798 799 798 793 790 789 787 787 787 791 794 788 775 774 781 785 785 785 786 784 782 782 781 780 782 785 786 788 789